Regional Weather Roundup
Issued by NWS

Home | Current Version | Previous Version | Graphics & Text | Print | Product List | Glossary On
Versions: 1 2 3 4 5 6 7 8 9 10 11 12 13 14 15 16 17 18 19 20 21 22 23 24 25 26 27
000
ASUS45 KCYS 260510
RWRWY

WYOMING REGIONAL WEATHER ROUNDUP
NATIONAL WEATHER SERVICE CHEYENNE WY
1100 PM MDT TUE APR 25 2017

NOTE:  "FAIR" INDICATES FEW OR NO CLOUDS BELOW 12,000 FEET
WITH NO SIGNIFICANT WEATHER AND/OR OBSTRUCTIONS TO VISIBILITY.

WYZ001-260600-
YELLOWSTONE NATIONAL PARK

CITY           SKY/WX    TMP DP  RH WIND       PRES   REMARKS
LK YELLOWSTONE   N/A     29  28  96 CALM      29.88S
W YELLOWSTONE  NOT AVBL

$$
WYZ002>013-054>058-071-098>099-260600-
NORTHERN WYOMING

CITY           SKY/WX    TMP DP  RH WIND       PRES   REMARKS
JACKSON        CLOUDY    36  36 100 W6        29.89S WCI  31
CODY           MOCLDY    35  32  88 S7        29.86S WCI  29
GREYBULL       FAIR      37  30  75 NW7       29.84R WCI  32
WORLAND        FAIR      38  33  82 N5        29.85R WCI  34
SHERIDAN       CLOUDY    33  29  85 E5        29.88F WCI  29
BUFFALO        NOT AVBL
GILLETTE       CLOUDY    27  27 100 NW5       29.90S WCI  22
HULETT         CLOUDY    27  25  93 NE3       29.91S
NEWCASTLE      CLOUDY    28  21  74 NW15      29.88S WCI  17

$$
WYZ014>020-022>026-101>103-260600-
CENTRAL WYOMING

CITY           SKY/WX    TMP DP  RH WIND       PRES   REMARKS
BIG PINEY      CLOUDY    31  28  89 SW3       29.90R
PINEDALE       MOCLDY    32  32 100 CALM      29.90R
DUBOIS         CLOUDY    30  30 100 E3        29.86S
LANDER         CLOUDY    34  27  75 SW5       29.85R WCI  30
RIVERTON       FAIR      37  29  72 S3        29.86S
CASPER         CLOUDY    29  26  89 CALM      29.89S
DOUGLAS        CLOUDY    30  25  81 NW10      29.89S WCI  21

$$
WYZ021-027>030-104>119-260600-
SOUTHERN WYOMING

CITY           SKY/WX    TMP DP  RH WIND       PRES   REMARKS
EVANSTON       CLOUDY    33  30  88 SW9       29.94S WCI  25
KEMMERER         N/A     32  30  93 NW7       29.93R WCI  26
FORT BRIDGER   FAIR      34  30  87 W12       29.95S WCI  25
ROCK SPRINGS   FAIR      33  29  85 SW6       29.90S WCI  28
DIXON            N/A     32  29  88 CALM      29.90S
RAWLINS        MOCLDY    29  25  85 CALM      29.88R
SARATOGA       CLOUDY    30  27  86 CALM      29.89R
LARAMIE        CLOUDY    28  23  81 NW14      29.83F WCI  17
CHEYENNE       CLOUDY    27  22  81 N13       29.84R WCI  16
TORRINGTON     CLOUDY    32  29  88 N8        29.87S WCI  25
PINE BLUFFS    CLOUDY    30  28  93 N8        29.86F WCI  23

$$




USA.gov is the U.S. government's official web portal to all federal, state and local government web resources and services.